Location: Staunton
(38.1490°N, 79.0720°W)
Time: 14:22:15
(UTC-04:00)

ISS - Pass Details

Date: 27 May 2017
Orbit: 402 x 408 km, 51.6° (Epoch: 29 May)

Event Time Altitude Azimuth Distance (km) Brightness Sun altitude
Rises 21:00:57 0° 242° (WSW) 2,321 0.4 -6.0°
Reaches altitude 10° 21:03:04 10° 247° (WSW) 1,463 -0.5 -6.3°
Maximum altitude 21:06:16 49° 324° (NW) 533 -2.7 -6.9°
Drops below altitude 10° 21:09:28 10° 41° (NE) 1,469 -1.1 -7.4°
Sets 21:11:36 0° 47° (NE) 2,331 -0.1 -7.7°
